Location: ČR
(50.0000°N, 15.0000°E)
Time: 16:53:30
(UTC+00:00)

O/OREOS (USA 219) - Pass Details

Date: 09 December 2021
Orbit: 621 x 646 km, 72.0° (Epoch: 22 May)

Event Time Altitude Azimuth Distance (km) Brightness Sun altitude
Rises 17:17:58 0° 339° (NNW) 2,955 ? -21.3°
Reaches altitude 10° 17:20:37 10° 353° (N) 2,045 ? -21.7°
Enters shadow 17:21:51 16° 4° (N) 1,688 ? -21.9°
